Gaylord, MI

11:40 PM EST on February 10, 2016 (GMT -0500)
Otsego County

Weather History for KGLR - September, 2012

Change the Weather History Date:

Thursday, September 27, 2012

  Actual Average Record
Temperature  
Mean Temperature 45 °F -  
Max Temperature 60 °F 63 °F 83 °F (1979)
Min Temperature 30 °F 42 °F 23 °F (1989)
Degree Days  
Heating Degree Days 20    
Moisture  
Dew Point 35 °F    
Average Humidity 72    
Maximum Humidity 96    
Minimum Humidity 36    
Precipitation  
Precipitation 0.00 in - - ()
Sea Level Pressure  
Sea Level Pressure 30.26 in    
Wind  
Wind Speed 0 mph (SSE)    
Max Wind Speed 5 mph    
Max Gust Speed -    
Visibility 10 miles    
Events      
Averages and records for this station are not official NWS values.
T = Trace of Precipitation, MM = Missing Value Source: NWS Daily Summary

Daily Weather History Graph

Daily Weather History Graph

Search for Another Location

Airport or City:

Trip Planner

Search our weather history database for the weather conditions in past years. The results will help you decide how hot, cold, wet, or windy it might be!

Date:

Astronomy

Sep. 27, 2012 Rise Set
Actual Time 7:32 AM EDT 7:25 PM EDT
Civil Twilight 7:03 AM EDT 7:55 PM EDT
Nautical Twilight 6:29 AM EDT 8:29 PM EDT
Astronomical Twilight 5:54 AM EDT 9:03 PM EDT
Moon 6:00 PM EDT (9/27) 4:55 AM EDT (9/27)
Length of Visible Light 12h 51m
Length of Day
11h 53m
Waxing Gibbous, 94% of the Moon is Illuminated
Sep 27
Waxing Gibbous
Sep 29
Full
Oct 8
Last Quarter
Oct 15
New
Oct 21
First Quarter

Hourly Weather History & Observations

Time (EDT) Temp. Dew Point Humidity Pressure Visibility Wind Dir Wind Speed Gust Speed Precip Events Conditions
12:53 AM 39.0 °F 35.1 °F 86% 30.23 in 10.0 mi Calm Calm - N/A   Clear
1:53 AM 41.0 °F 37.9 °F 89% 30.24 in 10.0 mi Calm Calm - N/A   Clear
2:53 AM 37.0 °F 34.0 °F 89% 30.26 in 10.0 mi Calm Calm - N/A   Clear
3:53 AM 33.1 °F 30.9 °F 92% 30.27 in 10.0 mi Calm Calm - N/A   Clear
4:53 AM 32.0 °F 30.9 °F 96% 30.27 in 10.0 mi Calm Calm - N/A   Clear
5:10 AM 33.8 °F 30.2 °F 87% 30.24 in 10.0 mi Calm Calm - N/A   Scattered Clouds
5:53 AM 30.9 °F 28.9 °F 92% 30.28 in 10.0 mi Calm Calm - N/A   Clear
6:53 AM 30.9 °F 28.9 °F 92% 30.30 in 10.0 mi Calm Calm - N/A   Clear
7:53 AM 30.0 °F 28.0 °F 92% 30.31 in 10.0 mi Calm Calm - N/A   Clear
8:53 AM 37.0 °F 34.0 °F 89% 30.32 in 10.0 mi Calm Calm - N/A   Clear
9:53 AM 48.9 °F 39.0 °F 69% 30.32 in 10.0 mi NE 4.6 mph - N/A   Clear
10:53 AM 51.1 °F 37.9 °F 61% 30.32 in 10.0 mi Calm Calm - N/A   Clear
11:53 AM 51.1 °F 37.0 °F 59% 30.32 in 10.0 mi Calm Calm - N/A   Clear
12:53 PM 54.0 °F 36.0 °F 51% 30.30 in 10.0 mi Calm Calm - N/A   Clear
1:53 PM 57.0 °F 36.0 °F 45% 30.27 in 10.0 mi SSE 3.5 mph - N/A   Clear
2:53 PM 57.0 °F 32.0 °F 39% 30.26 in 10.0 mi Calm Calm - N/A   Clear
3:53 PM 57.9 °F 33.1 °F 39% 30.24 in 10.0 mi Calm Calm - N/A   Clear
4:53 PM 59.0 °F 32.0 °F 36% 30.22 in 10.0 mi WSW 4.6 mph - N/A   Clear
5:53 PM 60.1 °F 34.0 °F 38% 30.22 in 10.0 mi Calm Calm - N/A   Clear
6:53 PM 57.9 °F 35.1 °F 42% 30.23 in 10.0 mi Calm Calm - N/A   Clear
7:53 PM 52.0 °F 42.1 °F 69% 30.25 in 10.0 mi Calm Calm - N/A   Clear
8:53 PM 48.0 °F 43.0 °F 83% 30.25 in 10.0 mi Calm Calm - N/A   Clear
9:53 PM 46.0 °F 42.1 °F 86% 30.23 in 10.0 mi Calm Calm - N/A   Clear
10:53 PM 45.0 °F 39.9 °F 82% 30.23 in 10.0 mi Calm Calm - N/A   Clear
11:53 PM 43.0 °F 39.9 °F 89% 30.22 in 10.0 mi Calm Calm - N/A   Clear